Stündliche Wetter Kyslyak

Heute, 28 Januar, Donnerstag

Zeit Temperatur Niederschläge Wind Luftdruck Luftfeuchtigkeit
00:00 -6°C° 0.6 mm 8 m/S 733 mmHg 91%
01:00 -6°C° 0.6 mm 8 m/S 732 mmHg 92%
02:00 -6°C° 0.6 mm 8 m/S 732 mmHg 93%
03:00 -6°C° 0.6 mm 8 m/S 731 mmHg 93%
04:00 -6°C° 0.6 mm 8 m/S 731 mmHg 94%
05:00 -6°C° 0.6 mm 8 m/S 731 mmHg 94%
06:00 -6°C° 0.4 mm 8 m/S 731 mmHg 94%
07:00 -6°C° 0.4 mm 8 m/S 730 mmHg 94%
08:00 -6°C° 0.4 mm 8 m/S 730 mmHg 93%
09:00 -6°C° 0.5 mm 8 m/S 730 mmHg 94%
10:00 -5°C° 0.5 mm 8 m/S 730 mmHg 94%
11:00 -5°C° 0.5 mm 8 m/S 730 mmHg 94%
12:00 -5°C° 0.8 mm 8 m/S 730 mmHg 94%
13:00 -5°C° 0.8 mm 8 m/S 730 mmHg 95%
14:00 -5°C° 0.8 mm 8 m/S 730 mmHg 95%
15:00 -5°C° 0.6 mm 8 m/S 730 mmHg 95%
16:00 -5°C° 0.6 mm 8 m/S 730 mmHg 95%
17:00 -5°C° 0.6 mm 8 m/S 730 mmHg 95%
18:00 -6°C° 0.3 mm 7 m/S 730 mmHg 95%
19:00 -6°C° 0.3 mm 7 m/S 730 mmHg 94%
20:00 -6°C° 0.3 mm 7 m/S 730 mmHg 94%
21:00 -5°C° 0.2 mm 6 m/S 730 mmHg 94%
22:00 -5°C° 0.2 mm 6 m/S 730 mmHg 94%
23:00 -6°C° 0.2 mm 6 m/S 730 mmHg 94%

Morgen, 29 Januar, Freitag

Zeit Temperatur Niederschläge Wind Luftdruck Luftfeuchtigkeit
00:00 -6°C° 0.2 mm 6 m/S 730 mmHg 93%
01:00 -6°C° 0.2 mm 5 m/S 731 mmHg 92%
02:00 -6°C° 0.2 mm 5 m/S 731 mmHg 91%
03:00 -8°C° 0 mm 4 m/S 731 mmHg 91%
04:00 -9°C° 0 mm 4 m/S 731 mmHg 91%
05:00 -9°C° 0 mm 3 m/S 730 mmHg 91%
06:00 -9°C° 0 mm 4 m/S 731 mmHg 90%
07:00 -8°C° 0 mm 5 m/S 731 mmHg 89%
08:00 -7°C° 0 mm 5 m/S 731 mmHg 88%
09:00 -6°C° 0.1 mm 6 m/S 731 mmHg 88%
10:00 -5°C° 0.1 mm 6 m/S 731 mmHg 88%
11:00 -4°C° 0.1 mm 6 m/S 731 mmHg 88%
12:00 -4°C° 0.2 mm 6 m/S 730 mmHg 90%
13:00 -3°C° 0.2 mm 6 m/S 730 mmHg 92%
14:00 -3°C° 0.2 mm 6 m/S 730 mmHg 93%
15:00 -2°C° 0.1 mm 5 m/S 730 mmHg 92%
16:00 -2°C° 0.1 mm 4 m/S 730 mmHg 91%
17:00 -3°C° 0.1 mm 4 m/S 730 mmHg 90%
18:00 -4°C° 0 mm 3 m/S 730 mmHg 90%
19:00 -5°C° 0 mm 3 m/S 731 mmHg 90%
20:00 -6°C° 0 mm 3 m/S 731 mmHg 90%
21:00 -6°C° 0 mm 3 m/S 731 mmHg 90%
22:00 -6°C° 0 mm 3 m/S 731 mmHg 89%
23:00 -6°C° 0 mm 3 m/S 731 mmHg 88%

übermorgen, 30 Januar, Samstag

Zeit Temperatur Niederschläge Wind Luftdruck Luftfeuchtigkeit
00:00 -5°C° 0 mm 2 m/S 731 mmHg 88%
01:00 -5°C° 0 mm 2 m/S 731 mmHg 87%
02:00 -5°C° 0 mm 2 m/S 731 mmHg 87%
03:00 -6°C° 0 mm 3 m/S 730 mmHg 87%
04:00 -5°C° 0 mm 4 m/S 730 mmHg 88%
05:00 -5°C° 0 mm 4 m/S 729 mmHg 89%
06:00 -6°C° 0 mm 5 m/S 729 mmHg 89%
07:00 -5°C° 0 mm 5 m/S 728 mmHg 89%
08:00 -5°C° 0 mm 5 m/S 728 mmHg 90%
09:00 -4°C° 0.2 mm 5 m/S 728 mmHg 93%
10:00 -2°C° 0.2 mm 5 m/S 727 mmHg 95%
11:00 -2°C° 0.2 mm 5 m/S 727 mmHg 98%
12:00 -2°C° 0.4 mm 5 m/S 727 mmHg 99%
13:00 -1°C° 0.4 mm 4 m/S 726 mmHg 99%
14:00 -1°C° 0.4 mm 4 m/S 726 mmHg 99%
15:00 -1°C° 0.1 mm 4 m/S 726 mmHg 99%
16:00 -1°C° 0.1 mm 4 m/S 726 mmHg 98%
17:00 -1°C° 0.1 mm 4 m/S 725 mmHg 98%
18:00 -1°C° 0 mm 4 m/S 725 mmHg 98%
19:00 -1°C° 0 mm 4 m/S 725 mmHg 98%
20:00 -2°C° 0 mm 4 m/S 724 mmHg 98%
21:00 -1°C° 0 mm 5 m/S 724 mmHg 96%
22:00 -1°C° 0 mm 5 m/S 724 mmHg 93%
23:00 -2°C° 0 mm 6 m/S 723 mmHg 91%

31 Januar, Sonntag

Zeit Temperatur Niederschläge Wind Luftdruck Luftfeuchtigkeit
00:00 -3°C° 0 mm 7 m/S 724 mmHg 89%
01:00 -5°C° 0 mm 8 m/S 724 mmHg 86%
02:00 -8°C° 0 mm 9 m/S 725 mmHg 84%
03:00 -8°C° 0 mm 9 m/S 726 mmHg 84%
04:00 -7°C° 0 mm 8 m/S 727 mmHg 85%
05:00 -7°C° 0 mm 8 m/S 728 mmHg 85%
06:00 -7°C° 0 mm 7 m/S 729 mmHg 86%
07:00 -8°C° 0 mm 6 m/S 730 mmHg 86%
08:00 -7°C° 0 mm 5 m/S 731 mmHg 86%
09:00 -7°C° 0 mm 5 m/S 732 mmHg 86%
10:00 -6°C° 0 mm 5 m/S 733 mmHg 85%
11:00 -5°C° 0 mm 6 m/S 734 mmHg 85%
12:00 -5°C° 0 mm 5 m/S 734 mmHg 84%
13:00 -4°C° 0 mm 4 m/S 735 mmHg 82%
14:00 -4°C° 0 mm 3 m/S 735 mmHg 81%
15:00 -5°C° 0 mm 3 m/S 736 mmHg 82%
16:00 -5°C° 0 mm 2 m/S 736 mmHg 83%
17:00 -4°C° 0 mm 1 m/S 736 mmHg 84%
18:00 -4°C° 0 mm 1 m/S 737 mmHg 85%
19:00 -4°C° 0 mm 1 m/S 737 mmHg 85%
20:00 -4°C° 0 mm 1 m/S 737 mmHg 86%
21:00 -4°C° 0 mm 1 m/S 737 mmHg 88%
22:00 -6°C° 0 mm 2 m/S 737 mmHg 89%
23:00 -6°C° 0 mm 2 m/S 737 mmHg 90%

1 Februar, Montag

Zeit Temperatur Niederschläge Wind Luftdruck Luftfeuchtigkeit
00:00 -6°C° 0 mm 2 m/S 737 mmHg 90%
01:00 -7°C° 0 mm 3 m/S 736 mmHg 90%
02:00 -7°C° 0 mm 3 m/S 736 mmHg 90%
03:00 -7°C° 0.2 mm 4 m/S 735 mmHg 92%
04:00 -7°C° 0.2 mm 5 m/S 734 mmHg 93%
05:00 -7°C° 0.2 mm 5 m/S 733 mmHg 95%
06:00 -6°C° 1.1 mm 6 m/S 733 mmHg 95%
07:00 -6°C° 1.1 mm 6 m/S 732 mmHg 95%
08:00 -6°C° 1.1 mm 6 m/S 731 mmHg 96%
09:00 -5°C° 1.3 mm 6 m/S 730 mmHg 96%
10:00 -4°C° 1.3 mm 6 m/S 730 mmHg 97%
11:00 -4°C° 1.3 mm 6 m/S 729 mmHg 97%
12:00 -4°C° 1.4 mm 5 m/S 728 mmHg 98%
13:00 -2°C° 1.4 mm 5 m/S 728 mmHg 98%
14:00 -2°C° 1.4 mm 4 m/S 728 mmHg 99%
15:00 -2°C° 0.1 mm 4 m/S 728 mmHg 97%
16:00 -3°C° 0.1 mm 4 m/S 728 mmHg 96%
17:00 -4°C° 0.1 mm 5 m/S 729 mmHg 95%
18:00 -4°C° 0 mm 4 m/S 730 mmHg 95%
19:00 -5°C° 0 mm 4 m/S 731 mmHg 95%
20:00 -7°C° 0 mm 3 m/S 732 mmHg 95%
21:00 -7°C° 0 mm 3 m/S 733 mmHg 94%
22:00 -8°C° 0 mm 3 m/S 734 mmHg 94%
23:00 -8°C° 0 mm 3 m/S 735 mmHg 94%

2 Februar, Dienstag

Zeit Temperatur Niederschläge Wind Luftdruck Luftfeuchtigkeit
00:00 -7°C° 0 mm 2 m/S 735 mmHg 94%
01:00 -8°C° 0 mm 2 m/S 736 mmHg 93%
02:00 -8°C° 0 mm 2 m/S 736 mmHg 93%
03:00 -8°C° 0 mm 2 m/S 737 mmHg 92%
04:00 -8°C° 0 mm 2 m/S 737 mmHg 91%
05:00 -8°C° 0 mm 2 m/S 737 mmHg 91%
06:00 -7°C° 0 mm 2 m/S 738 mmHg 89%
07:00 -6°C° 0 mm 1 m/S 739 mmHg 88%
08:00 -6°C° 0 mm 1 m/S 739 mmHg 87%
09:00 -3°C° 0 mm 1 m/S 740 mmHg 87%
10:00 -4°C° 0 mm 2 m/S 740 mmHg 87%
11:00 -2°C° 0 mm 2 m/S 740 mmHg 87%
12:00 -2°C° 0 mm 2 m/S 740 mmHg 88%
13:00 -1°C° 0 mm 2 m/S 741 mmHg 90%
14:00 -1°C° 0 mm 2 m/S 741 mmHg 91%
15:00 -2°C° 0 mm 2 m/S 741 mmHg 90%
16:00 -2°C° 0 mm 2 m/S 741 mmHg 89%
17:00 -3°C° 0 mm 2 m/S 741 mmHg 88%
18:00 -4°C° 0 mm 2 m/S 741 mmHg 88%
19:00 -4°C° 0 mm 2 m/S 741 mmHg 87%
20:00 -4°C° 0 mm 2 m/S 741 mmHg 87%
21:00 -5°C° 0 mm 2 m/S 741 mmHg 86%
22:00 -6°C° 0 mm 3 m/S 741 mmHg 85%
23:00 -6°C° 0 mm 3 m/S 741 mmHg 85%
Mehr zeigen

Wir brauchen deine Erlaubnis

Meteoprog und unser Service Anbieter werden persönliche Daten aufbewahren, so wie Cookies, Geräte Bezeichnung oder ähnliche Technologien von deinem Gerät und Prozess, so wie Persönliche Daten Inhalte und Werbungen, genauso wie social Media und den Verkehr zu analysieren.

  • Aufbewahrung und/oder Zugang zu deiner Geräte Informationen.

    Cookies, Geräte Bezeichnung oder andere Informationen, können aufbewahrt oder Zugang zu deinem Gerät erhalten, für den Grund, der oben angegeben wird.

  • Personalisierte Werbung und Inhalte, Messungen, Einblick in das Publikum und Produkt Entwicklung.

    Werbungen und Inhalte können personalisiert werden, basierend auf ein Profil. Mehr Daten können besser personalisierte Werbungen und Inhalte hinzufügen. Werbung und Inhalte können gezeigt und gemessen werden. Einblicke über das Publikum, welche die Werbung gesehen haben und den Inhalt, können abgeleitet werden. So wie Daten können genutzt werden, um es zu verbessern oder die Benutzer Erfahrung zu verbessern das System und die Software.

Wenn du “Ich stimme zu” klickst, erlaubst du uns, die Cookies zu benutzen die Geräte Bezeichnung, den Web oder ähnliche Technologien zu benutzen. Deine Settings, können in deinem Gerät bei deinem Browser geändert werden.

Für den bestimmten Zweck, berechtigten Interessen beruhen darauf, mehr als auf den Inhalt. Du kannst mehr darüber in unseren Privaten und Cookie Politik lesen.